Погода в Красной Поляне

Россия / Белгородская область     50°33′04″N   37°08′29″E
темп.,
°C
ветер,
м/с
пор.,
м/с
влажн.,
%
обл.,
%
осадки,
мм/ч
давл.,
гПа
погр.,
м
17 августа, ср
ср1700:00+27в7133146 0.0 1012546
03:00+24в51139100 0.1 1011329
06:00+22всв3947100 0.1 1011212
09:00+24св61240100 0.1 1010401
12:00+28всв71235100 0.0 10101286
15:00+33в68215 0.0 10082527
18:00+33св46250 0.1 1006244
21:00+26всв815323 0.1 1007538
18 августа, чт
чт1800:00+23всв71440100 0.0 1008459
03:00+21всв7134987 0.0 1008380
06:00+19всв5105335 0.0 1008264
09:00+23всв5548100 0.1 1009411
12:00+28всв443737 0.0 1009836
15:00+29всв443481 0.0 10091220
18:00+28св664273 0.0 1009758
21:00+20ссв397720 0.1 1009186
19 августа, пт
пт1900:00+19св510760 0.0 1009257
03:00+19всв511885 0.0 1010329
06:00+18в7139125 0.0 1011484
09:00+22в810633 0.0 1012774
12:00+26всв78485 0.0 10121281
15:00+30всв783639 0.1 10122108
18:00+27в91136100 0.3 10131288
21:00+21всв7145713 0.3 1015685
20 августа, сб
сб2000:00+21всв7146091 0.0 1014812
03:00+20св61358100 0.0 1014508
06:00+21в61453100 0.0 1014518
09:00+24вюв101545100 0.3 10161162
12:00+25вюв81135100 0.3 10161267
15:00+25в71236100 0.3 10171004
18:00+27всв101627100 0.0 10151016
21:00+27в111725100 0.0 1016963
21 августа, вс
вс2100:00+26вюв91724100 0.0 1016843
03:00+25вюв81424100 0.0 1017989
06:00+23вюв6122492 0.0 1018666
09:00+23вюв71322100 0.0 1018704
12:00+28вюв81118100 0.0 10171194
15:00+30вюв91115100 0.0 10162180
18:00+28в6111797 0.0 1016862
21:00+22в5132153 0.0 1017233